Wind_Speed
21 23 24 19 16 16 17 20 20 23 22 27 28 27 24 24 24 21 19 19 23 26 26 23 21 20 16 10 10 12 11 9 8 7 7 7 7 8 8 9 11 13 16 18
25 27 21 19 20 21 22 24 29 27 21 26 25 29 29 19 19 19 20 25 25 26 27 23 19 16 15 14 12 10 9 8 8 8 7 8 10 10 11 12 12 12 12 13
31 26 17 19 20 24 26 26 25 25 25 26 30 35 26 20 20 20 26 23 24 23 22 20 18 17 16 16 15 12 10 10 9 8 9 8 8 8 9 10 12 14 15 16
24 26 26 27 28 25 26 26 26 27 26 23 14 8 9 18 21 21 22 23 21 18 17 18 20 19 18 18 17 15 14 14 14 10 10 10 9 10 12 14 15 16 17 19
14 13 12 16 16 21 25 19 13 11 13 16 17 14 10 9 17 24 21 20 19 18 17 19 20 20 20 19 18 17 17 18 17 13 12 13 12 13 14 16 17 18 19 21
18 18 17 15 12 14 12 12 11 13 16 6 24 22 7 8 13 17 14 14 17 19 20 22 22 21 21 18 18 18 17 17 16 16 15 16 17 18 19 20 22 24 26 27
12 15 14 16 15 17 19 13 3 3 2 6 9 14 24 13 14 13 11 13 16 20 22 23 21 19 18 17 18 18 19 20 21 21 23 24 26 28 30 30 30 31 31 32
10 8 16 16 20 18 25 25 11 7 3 4 7 10 10 11 21 18 16 21 19 22 22 19 18 16 15 14 18 22 25 25 27 31 35 41 44 42 41 40 38 38 41 39
8 12 14 18 18 24 21 31 28 19 15 8 13 20 23 16 20 19 20 25 20 15 13 12 10 13 16 20 23 26 30 32 34 38 42 44 44 43 42 43 45 46 48 47
16 18 22 20 22 23 29 21 12 13 2 4 8 13 19 16 14 17 16 12 13 11 10 12 15 19 22 25 28 30 34 38 41 43 44 46 45 45 46 48 47 48 45 43
19 21 18 18 24 28 27 29 21 18 21 5 2 13 14 14 17 15 15 13 13 15 16 19 24 28 33 37 38 37 38 40 44 46 46 44 44 46 46 45 44 43 42 41
20 14 20 30 23 24 30 32 31 27 14 14 15 32 21 20 16 16 15 19 18 20 24 29 35 41 40 38 36 36 37 36 37 38 40 41 44 44 41 39 38 37 38 39
22 17 15 14 21 25 29 35 36 37 33 29 14 20 22 24 15 20 23 26 29 31 36 41 43 39 35 33 33 33 34 34 35 36 36 35 35 33 32 34 35 37 38 41
29 31 27 28 19 9 24 34 37 35 28 31 38 37 30 31 33 31 31 35 41 42 41 38 34 33 34 32 31 34 35 34 32 32 33 32 31 32 33 34 36 39 40 40
30 36 35 37 40 40 38 37 36 35 38 30 33 33 36 35 37 42 44 42 43 40 32 33 37 36 36 37 35 35 34 33 31 31 30 31 33 35 36 37 37 36 37 39
37 37 34 39 42 43 43 44 38 40 37 38 40 49 47 47 47 45 43 39 34 33 39 38 39 37 38 35 33 33 32 30 29 31 33 34 36 37 37 35 35 37 39 41
30 34 35 33 32 30 32 51 47 45 46 46 44 46 41 38 36 34 32 36 37 38 41 43 41 37 33 33 32 30 28 29 31 34 36 37 36 35 36 38 40 40 40 42
35 34 30 17 16 9 34 36 37 37 37 37 39 34 30 30 32 35 35 35 37 43 41 39 36 32 27 24 26 30 33 34 36 35 35 34 35 38 40 40 40 40 41 44
39 38 28 15 20 29 31 28 29 28 41 39 32 29 29 31 34 36 33 39 39 37 34 33 30 28 27 30 35 38 36 36 35 32 33 36 39 40 40 40 40 40 43 46
38 35 33 27 8 10 36 31 31 28 34 32 29 25 26 29 33 37 35 35 32 32 31 30 30 33 36 40 38 34 32 30 31 33 36 39 41 40 40 39 39 41 45 48
33 39 38 38 22 32 39 35 31 16 29 27 25 27 28 31 36 40 36 32 30 31 32 35 38 36 34 34 32 31 32 33 34 35 37 39 38 39 40 39 39 43 47 50
31 23 31 27 15 18 38 27 30 31 27 26 27 31 34 41 40 35 34 33 33 35 35 36 35 32 31 32 33 33 33 34 36 38 39 38 37 39 38 38 41 45 49 52
35 41 32 31 25 24 13 12 14 21 27 29 30 36 38 38 36 34 35 35 36 35 33 32 33 34 33 33 34 34 34 35 37 38 38 37 38 39 38 38 42 46 49 52
36 38 40 40 42 35 26 21 26 29 31 32 34 34 35 35 34 35 36 36 36 32 32 33 36 37 36 34 35 34 35 36 38 38 39 40 40 40 38 40 43 47 51 52
33 35 40 40 37 32 29 25 20 22 28 33 36 33 32 34 37 38 36 35 33 35 37 38 38 37 36 35 36 36 37 38 39 39 40 40 41 39 39 40 44 48 51 54
42 45 45 39 34 30 23 20 23 28 30 30 31 32 33 34 37 39 40 38 35 39 40 40 39 39 37 38 38 39 40 39 38 40 40 40 38 39 40 42 46 49 52 52
Wind_Direction
259 253 258 280 281 272 264 263 270 279 288 274 274 276 277 286 275 259 278 292 294 292 296 297 296 308 318 289 278 277 279 266 265 274 288 298 292 299 297 292 297 301 300 296
258 259 272 268 263 261 260 264 271 279 280 278 284 284 291 268 256 263 273 281 276 279 288 290 290 294 297 278 267 268 270 270 276 286 285 285 293 300 301 313 319 322 324 322
262 266 261 260 258 259 260 264 270 279 283 282 287 290 280 259 263 264 274 269 269 276 280 281 287 287 278 264 265 271 277 283 285 278 280 281 275 289 300 306 306 312 316 321
265 265 259 256 255 250 252 261 270 276 273 270 263 280 253 269 264 267 262 267 273 275 274 277 280 279 269 263 264 267 275 286 289 274 277 281 284 289 292 294 296 299 302 305
255 255 248 242 255 249 261 272 256 259 261 261 253 270 267 210 259 269 259 268 266 271 269 273 269 268 261 256 260 270 277 279 275 267 273 276 281 289 294 299 301 298 299 300
239 243 247 246 221 233 245 229 253 266 269 264 263 242 219 256 244 244 250 258 269 274 267 267 263 250 250 258 274 281 269 261 261 267 276 284 286 288 289 292 294 297 300 301
238 231 232 230 232 219 213 211 276 295 260 239 258 235 250 237 227 215 249 247 267 265 263 261 256 252 259 271 278 281 277 277 281 285 290 291 294 297 299 301 304 303 304 305
227 236 224 225 220 230 217 217 192 217 212 257 272 245 259 243 240 250 240 265 253 264 263 257 254 260 267 278 289 295 293 291 290 294 300 303 305 306 307 308 308 308 308 306
229 236 223 231 233 228 224 225 233 245 271 288 260 266 267 247 250 254 249 264 261 246 247 252 253 276 294 298 295 291 291 291 290 291 294 295 298 302 305 306 304 303 301 300
247 263 263 255 238 233 232 243 218 215 239 245 258 263 251 268 265 266 246 226 233 234 247 263 281 293 296 296 296 291 289 288 288 290 294 296 298 300 302 302 301 300 299 298
239 248 260 237 235 239 237 233 224 235 234 196 240 266 270 277 266 249 229 228 243 259 266 275 287 294 297 298 296 292 287 284 283 287 292 296 298 302 304 300 298 297 296 294
246 246 245 252 243 235 234 242 246 235 244 234 245 260 265 270 250 244 247 277 276 277 281 287 292 296 297 297 295 293 293 293 295 295 296 296 299 300 297 294 294 294 295 295
236 237 246 254 251 237 236 241 246 246 243 242 240 255 270 248 249 264 262 270 279 286 290 293 295 297 295 294 291 286 287 288 289 291 290 290 291 291 290 290 290 290 290 291
250 244 235 238 249 233 237 242 244 244 244 251 249 256 255 269 274 274 276 279 286 286 288 292 292 295 296 292 285 286 286 286 286 284 286 289 290 291 290 290 292 295 296 295
242 241 243 245 252 256 260 259 255 251 254 241 252 261 268 268 271 280 286 286 284 288 286 290 294 293 292 288 286 284 284 285 284 283 287 291 291 291 292 294 295 295 296 296
244 247 249 253 256 257 256 255 253 253 247 261 265 269 275 276 279 281 280 280 278 281 287 288 291 288 284 282 279 280 282 280 280 286 290 291 291 292 294 296 297 299 299 299
250 239 242 244 247 244 249 251 252 256 264 269 265 274 278 275 274 274 275 277 282 284 287 287 285 284 279 278 278 276 279 282 286 289 291 290 292 296 299 300 301 300 300 300
251 252 253 257 249 246 260 266 265 260 266 271 273 277 276 270 272 274 270 272 279 285 286 286 284 282 280 278 282 287 286 287 287 284 285 290 295 297 298 300 301 302 301 303
251 255 246 244 234 254 257 261 263 270 280 277 273 272 269 270 269 267 272 284 286 285 284 284 285 282 278 284 291 289 286 282 280 282 287 292 294 297 299 301 302 301 302 304
239 241 243 245 224 227 268 269 272 270 264 274 278 281 270 261 264 275 290 284 284 285 284 285 280 280 282 286 287 284 282 281 284 286 289 292 294 297 299 300 299 301 304 308
226 227 231 237 245 261 263 266 266 245 270 279 283 279 272 276 285 291 288 286 286 284 284 283 284 285 287 288 286 287 287 287 285 284 288 292 293 295 298 298 299 302 306 310
239 233 235 233 241 259 263 244 243 272 279 285 278 273 275 286 289 285 283 285 283 283 286 287 288 291 291 292 291 291 289 286 285 288 291 292 292 295 296 296 299 306 309 311
237 244 247 242 255 259 255 257 272 275 283 277 273 276 283 283 280 276 280 280 280 285 287 286 288 290 294 294 291 291 290 288 287 288 290 291 294 296 296 297 302 307 309 312
251 257 253 254 258 260 267 275 286 285 283 284 283 279 275 272 271 277 280 280 282 286 286 286 289 295 297 292 290 292 291 289 290 292 291 290 293 295 295 300 305 308 310 313
258 260 259 258 261 264 273 284 276 277 273 271 272 264 266 271 272 274 278 278 281 283 285 287 291 294 292 288 289 290 288 288 288 289 290 289 291 292 295 301 307 309 312 315
257 262 257 263 277 284 279 279 285 281 280 276 262 255 265 273 272 271 273 276 274 278 282 286 290 291 288 288 290 288 287 287 286 289 289 289 288 291 295 301 307 311 313 315
Height
3144 3144 3144 3147 3147 3147 3146 3145 3146 3147 3148 3143 3142 3140 3142 3143 3141 3140 3140 3137 3135 3133 3132 3132 3133 3132 3132 3131 3131 3131 3131 3129 3129 3128 3127 3126 3125 3123 3123 3122 3122 3122 3122 3122
3138 3136 3142 3142 3142 3142 3141 3141 3140 3141 3143 3138 3137 3134 3137 3136 3133 3135 3135 3132 3129 3127 3127 3127 3127 3129 3128 3129 3130 3128 3127 3127 3126 3125 3125 3123 3122 3121 3121 3119 3118 3118 3117 3117
3131 3135 3136 3136 3136 3136 3136 3136 3136 3137 3137 3135 3131 3125 3129 3130 3130 3129 3128 3127 3125 3123 3123 3123 3124 3125 3126 3126 3126 3126 3125 3125 3125 3123 3122 3121 3119 3118 3117 3117 3115 3114 3113 3112
3123 3126 3127 3127 3128 3130 3129 3131 3131 3130 3129 3127 3127 3120 3119 3124 3124 3123 3122 3121 3121 3120 3119 3119 3120 3122 3122 3122 3123 3123 3122 3122 3122 3121 3121 3119 3118 3116 3114 3113 3112 3112 3110 3109
3119 3119 3120 3121 3123 3125 3126 3128 3127 3127 3126 3123 3124 3122 3110 3115 3118 3116 3117 3118 3117 3117 3116 3115 3115 3116 3117 3118 3119 3118 3118 3118 3117 3116 3116 3115 3114 3112 3111 3110 3109 3107 3107 3105
3111 3114 3116 3117 3119 3121 3122 3126 3126 3124 3124 3120 3117 3117 3106 3108 3111 3112 3113 3115 3116 3116 3113 3112 3112 3112 3112 3114 3115 3114 3113 3112 3111 3111 3111 3112 3108 3108 3107 3106 3105 3103 3101 3099
3108 3108 3110 3113 3117 3116 3117 3120 3124 3124 3123 3114 3111 3109 3101 3103 3105 3107 3109 3111 3112 3111 3110 3109 3109 3110 3109 3109 3109 3109 3108 3108 3106 3106 3106 3106 3104 3102 3101 3099 3098 3096 3092 3091
3106 3106 3106 3107 3109 3112 3109 3112 3113 3118 3119 3110 3108 3101 3096 3096 3098 3101 3102 3104 3104 3105 3106 3107 3106 3106 3105 3104 3104 3104 3103 3101 3100 3099 3098 3095 3094 3092 3090 3088 3086 3085 3080 3079
3103 3103 3102 3102 3103 3108 3108 3107 3108 3107 3108 3110 3101 3094 3093 3097 3096 3097 3098 3097 3097 3099 3100 3101 3102 3102 3101 3100 3099 3098 3096 3094 3092 3091 3089 3087 3083 3081 3079 3077 3075 3073 3071 3070
3096 3099 3101 3100 3099 3101 3103 3103 3106 3106 3109 3109 3092 3090 3084 3089 3093 3091 3092 3095 3095 3095 3096 3097 3097 3097 3096 3095 3094 3092 3090 3087 3084 3082 3079 3076 3074 3072 3070 3068 3066 3064 3062 3059
3091 3092 3095 3096 3093 3091 3097 3097 3096 3100 3096 3092 3093 3082 3082 3084 3087 3088 3088 3091 3092 3092 3091 3091 3091 3091 3089 3087 3085 3083 3081 3079 3077 3074 3071 3069 3066 3063 3061 3060 3058 3055 3052 3049
3084 3081 3084 3090 3089 3087 3088 3089 3089 3089 3088 3086 3084 3074 3078 3080 3082 3084 3085 3086 3086 3086 3085 3084 3082 3082 3080 3078 3076 3074 3071 3068 3066 3064 3063 3061 3059 3056 3054 3051 3048 3046 3043 3040
3080 3076 3076 3080 3088 3078 3079 3082 3083 3081 3080 3077 3083 3071 3074 3076 3079 3080 3079 3079 3079 3078 3077 3075 3073 3072 3070 3067 3065 3064 3062 3059 3057 3055 3052 3050 3049 3048 3045 3043 3040 3037 3034 3031
3074 3069 3066 3065 3075 3072 3069 3072 3073 3074 3073 3073 3067 3070 3071 3071 3073 3072 3072 3071 3070 3069 3067 3065 3064 3062 3060 3058 3056 3054 3052 3050 3048 3045 3043 3042 3041 3039 3036 3033 3030 3026 3023 3020
3066 3062 3061 3059 3064 3065 3062 3063 3060 3062 3064 3064 3062 3062 3064 3067 3067 3065 3061 3060 3058 3057 3056 3055 3054 3052 3051 3049 3047 3045 3043 3041 3039 3037 3035 3033 3032 3029 3026 3023 3020 3016 3013 3009
3055 3052 3053 3050 3056 3054 3051 3050 3053 3053 3054 3053 3055 3050 3059 3058 3056 3054 3053 3051 3049 3047 3047 3046 3044 3043 3042 3040 3038 3036 3035 3033 3031 3029 3026 3024 3022 3019 3016 3012 3009 3006 3002 2998
3048 3048 3045 3041 3045 3044 3038 3034 3038 3042 3045 3046 3043 3042 3047 3047 3044 3043 3043 3041 3040 3039 3038 3036 3034 3033 3032 3031 3029 3027 3026 3024 3022 3020 3017 3015 3012 3009 3005 3001 2998 2994 2991 2987
3039 3041 3040 3036 3037 3035 3023 3026 3029 3029 3032 3035 3033 3034 3035 3035 3035 3034 3033 3032 3032 3030 3027 3025 3024 3023 3022 3021 3020 3019 3017 3015 3012 3010 3008 3005 3002 2999 2995 2991 2988 2984 2979 2975
3029 3031 3029 3030 3027 3021 3016 3017 3018 3021 3023 3024 3024 3025 3025 3027 3025 3025 3026 3025 3022 3020 3018 3016 3014 3014 3013 3012 3011 3008 3006 3004 3002 3000 2998 2996 2992 2988 2985 2981 2977 2973 2969 2965
3018 3020 3023 3022 3021 3015 3008 3011 3012 3012 3010 3015 3015 3015 3016 3016 3014 3016 3015 3013 3012 3011 3009 3007 3006 3005 3004 3003 3000 2997 2995 2994 2992 2990 2988 2985 2981 2977 2974 2971 2967 2962 2957 2952
3008 3010 3009 3010 3009 3000 3003 3003 3005 3010 3008 3008 3009 3008 3008 3008 3007 3005 3004 3003 3003 3001 3001 2999 2997 2995 2993 2992 2989 2988 2986 2984 2982 2980 2978 2974 2970 2967 2963 2960 2956 2951 2946 2940
3000 3003 3001 3003 3003 2995 2991 2994 2999 3000 2999 3001 3001 3000 2998 2998 2996 2995 2994 2994 2993 2992 2991 2989 2986 2985 2984 2982 2980 2977 2976 2973 2972 2969 2966 2963 2960 2957 2954 2950 2946 2940 2934 2927
2993 2992 2991 2990 2984 2983 2985 2989 2992 2994 2993 2992 2992 2992 2989 2988 2987 2985 2985 2985 2983 2981 2981 2979 2977 2975 2974 2972 2970 2967 2965 2962 2960 2958 2955 2952 2949 2946 2943 2939 2935 2930 2923 2916
2980 2980 2977 2976 2977 2979 2982 2984 2985 2985 2984 2984 2982 2982 2979 2977 2977 2976 2975 2975 2973 2972 2970 2969 2967 2965 2963 2961 2959 2957 2954 2951 2949 2946 2943 2941 2938 2935 2932 2928 2924 2919 2912 2905
2973 2969 2964 2966 2971 2974 2975 2976 2976 2975 2974 2973 2971 2971 2970 2969 2968 2967 2966 2964 2964 2962 2960 2958 2956 2955 2953 2951 2949 2946 2943 2940 2938 2936 2932 2930 2927 2924 2922 2918 2913 2908 2901 2893
2959 2957 2957 2960 2966 2966 2967 2968 2966 2964 2962 2963 2962 2962 2961 2960 2957 2956 2954 2954 2954 2952 2950 2948 2946 2943 2941 2939 2937 2934 2932 2930 2927 2925 2922 2919 2916 2914 2910 2907 2904 2898 2890 2883